Overview Statistics Trail Chart Weather Telemetry Raw packets
 

This is the latest recevied weather packets stored in our database for station/object LA4GY-1. If no packets are shown the sender has not sent any weather packets the latest 10 day(s).

<< 53 54 55 56 57 58 >>
Time Temp. Humidity Pressure Rain* Wind** Luminosity Snow
1787828480 18.33° C 64% 1024.4 hPa 0 mm - - -
1787827880 18.33° C 68% 1024.6 hPa 0 mm - - -
1787827280 17.78° C 70% 1024.6 hPa 0 mm - - -
1787826680 17.22° C 70% 1024.8 hPa 0 mm - - -
1787826080 17.22° C 71% 1024.8 hPa 0 mm - - -
1787825480 16.67° C 73% 1024.9 hPa 0 mm - - -
1787824880 16.11° C 75% 1024.8 hPa 0 mm - - -
1787824280 15.56° C 73% 1025.1 hPa 0 mm - - -
1787823680 15.56° C 74% 1025.2 hPa 0 mm - - -
1787823080 15.56° C 74% 1025.3 hPa 0 mm - - -
1787822480 15° C 76% 1025.4 hPa 0 mm - - -
1787821879 14.44° C 78% 1025.5 hPa 0 mm - - -
1787821279 14.44° C 80% 1025.6 hPa 0 mm - - -
1787820679 13.89° C 82% 1025.7 hPa 0 mm - - -
1787820079 13.33° C 82% 1025.8 hPa 0 mm - - -
1787819479 13.33° C 82% 1025.7 hPa 0 mm - - -
1787818879 13.33° C 83% 1025.7 hPa 0 mm - - -
1787818279 12.78° C 82% 1025.8 hPa 0 mm - - -
1787817679 12.78° C 85% 1025.9 hPa 0 mm - - -
1787817079 12.22° C 86% 1025.8 hPa 0 mm - - -
1787816479 12.22° C 86% 1025.9 hPa 0 mm - - -
1787815879 11.67° C 86% 1026 hPa 0 mm - - -
1787815279 11.67° C 87% 1026.1 hPa 0 mm - - -
1787814679 11.67° C 88% 1026.1 hPa 0 mm - - -
1787814079 11.11° C 88% 1026.1 hPa 0 mm - - -

* Rain latest hour (hover to see other rain measurements)
** Current wind speed in m/s (hover to see current wind gust speed)